{"data":{"norad_id":47722,"intl_designator":"2021-017A","name":"STARLINK-2068","alt_names":[],"object_type":"PAYLOAD","status":"ACTIVE","operator":null,"country":"US","launch_date":"2021-03-04","launch_site_code":"AFETR","launch_vehicle":null,"mission":null,"orbit_class":"UNKNOWN","rcs_meters":null,"size_class":null,"mass_kg":null,"dimensions":null,"purposes":["comms"],"wikipedia_slug":null,"has_3d_model":false,"image_url":null,"decayed_at":null,"tle_current":{"epoch":"2026-05-24T20:24:31.728672Z","epoch_age_seconds":98055,"freshness":"FRESH","line1":"1 47722U 21017A   26144.85036723  .00000993  00000+0  43767-4 0  9995","line2":"2 47722  53.1584 196.7857 0001249  84.2386 275.8758 15.31696807289748","mean_motion":15.31696807,"eccentricity":0.0001249,"inclination_deg":53.1584,"raan_deg":196.7857,"arg_perigee_deg":84.2386,"mean_anomaly_deg":275.8758,"bstar":4.3767e-5,"rev_number":28974,"period_min":94.013383942505,"perigee_km":469.89408748351,"apogee_km":471.60493933456,"semimajor_km":6848.886513409,"source":"CELESTRAK","updated_at":"2026-05-25T13:38:16.564002Z"}}}